TimeHST,TemperatureF,Dew PointF,Humidity,Sea Level PressureIn,VisibilityMPH,Wind Direction,Wind SpeedMPH,Gust SpeedMPH,PrecipitationIn,Events,Conditions,WindDirDegrees,DateUTC
12:54 AM,64.0,55.0,73,30.01,10.0,Calm,Calm,-,N/A,,Clear,0,2012-11-02 10:54:00
1:54 AM,62.1,55.0,78,30.01,10.0,ENE,3.5,-,N/A,,Clear,60,2012-11-02 11:54:00
2:54 AM,66.0,59.0,78,29.99,10.0,Calm,Calm,-,N/A,,Clear,0,2012-11-02 12:54:00
3:54 AM,63.0,57.0,81,29.99,10.0,ENE,3.5,-,N/A,,Clear,60,2012-11-02 13:54:00
4:54 AM,64.0,59.0,84,29.99,10.0,Calm,Calm,-,N/A,,Clear,0,2012-11-02 14:54:00
5:54 AM,68.0,61.0,78,29.99,10.0,NNE,5.8,-,N/A,,Clear,20,2012-11-02 15:54:00
6:54 AM,69.1,60.1,73,30.00,10.0,NNE,4.6,-,N/A,,Clear,20,2012-11-02 16:54:00
7:54 AM,75.9,60.1,58,30.00,10.0,NE,4.6,-,N/A,,Clear,50,2012-11-02 17:54:00
8:54 AM,79.0,57.9,48,30.01,10.0,Variable,5.8,-,N/A,,Clear,0,2012-11-02 18:54:00
9:54 AM,81.0,57.0,44,30.01,10.0,North,5.8,-,N/A,,Clear,360,2012-11-02 19:54:00
10:54 AM,78.1,59.0,52,29.99,10.0,NNE,5.8,-,N/A,,Partly Cloudy,20,2012-11-02 20:54:00
11:54 AM,81.0,57.9,45,29.96,10.0,North,8.1,-,N/A,,Scattered Clouds,10,2012-11-02 21:54:00
12:54 PM,82.0,57.0,42,29.94,10.0,NNE,6.9,-,N/A,,Scattered Clouds,20,2012-11-02 22:54:00
1:54 PM,82.0,60.1,47,29.91,10.0,South,6.9,-,N/A,,Scattered Clouds,170,2012-11-02 23:54:00
2:54 PM,81.0,60.1,49,29.90,10.0,SSE,11.5,-,N/A,,Partly Cloudy,160,2012-11-03 00:54:00
3:54 PM,80.1,61.0,52,29.90,10.0,SE,11.5,-,N/A,,Partly Cloudy,140,2012-11-03 01:54:00
4:54 PM,79.0,61.0,54,29.91,10.0,South,8.1,-,N/A,,Clear,170,2012-11-03 02:54:00
5:54 PM,77.0,62.1,60,29.93,10.0,South,5.8,-,N/A,,Clear,180,2012-11-03 03:54:00
6:54 PM,75.0,62.1,64,29.96,10.0,South,4.6,-,N/A,,Clear,170,2012-11-03 04:54:00
7:54 PM,75.0,63.0,66,29.98,10.0,South,4.6,-,N/A,,Scattered Clouds,170,2012-11-03 05:54:00
8:54 PM,75.9,64.0,67,30.00,10.0,South,5.8,-,N/A,,Mostly Cloudy,170,2012-11-03 06:54:00
9:54 PM,75.0,64.0,69,30.01,10.0,SSE,6.9,-,N/A,,Mostly Cloudy,160,2012-11-03 07:54:00
10:54 PM,73.9,64.0,71,30.00,10.0,Calm,Calm,-,N/A,,Scattered Clouds,0,2012-11-03 08:54:00
11:54 PM,71.1,63.0,75,29.99,10.0,ENE,5.8,-,N/A,,Clear,60,2012-11-03 09:54:00